Flag for U.S.A. Weather past 2 weeks in Aspen, Colorado, U.S.A.

Now
75 °F

Sunny.


Feels Like: 77 °F
Forecast: 54 / 78 °F
Wind: 6 mph from North

Location: Aspen-Pitkin County Airport

Current Time: Jul 4, 2015 at 11:17:34 AM

Latest Report: Jul 4, 2015 at 10:53 AM


Visibility: 10 mi

Pressure: 29.88 "Hg (22.64 "Hg at 2411m altitude)

Humidity: 36%

Dew point: 46 °F

Location of AspenLocation

Historic Weather in Aspen — Graph

°F

Aspen temperature yesterday

Maximum temperature yesterday: 82 °F (at 1:53 PM)
Minimum temperature yesterday: 54 °F (at 2:53 AM)
Average temperature yesterday: 67 °F

Past Weeks' High & Low Weather Summary

 TemperatureHumidityPressure
High87 °F (Jun 21, 3:53 PM)77% (Jul 4, 5:53 AM)30.28 "Hg (Jul 4, 5:53 AM)
Low47 °F (Jun 25, 5:53 AM)6% (Jun 22, 1:53 PM)29.75 "Hg (Jun 19, 6:53 PM)
Average68 °F39%29.92 "Hg
* Reported Jun 19 9:53 AM — Jul 4 9:53 AM, Aspen, Weather by CustomWeather, © 2015

Note: Actual official high and low records may vary slightly from our data, if they occured in-between our weather recording intervals... More about our weather records

Advertising

Aspen weather history for previous 24 hours

 ConditionsComfort  
Time TempWeatherWind HumidityBarometerVisibility
9:53 AM
Sat, Jul 4
70 °FPassing clouds.No wind41%29.89 "Hg10 mi
8:53 AM65 °FSunny.5 mph49%29.92 "Hg10 mi
7:53 AM60 °FSunny.No wind56%29.91 "Hg10 mi
6:53 AM56 °FPassing clouds.5 mph65%29.91 "Hg10 mi
5:53 AM50 °FPassing clouds.No wind77%29.92 "Hg10 mi
4:53 AM54 °FPassing clouds.7 mph67%29.89 "Hg10 mi
3:53 AM59 °FClear.10 mph58%29.84 "Hg10 mi
2:53 AM61 °FClear.10 mph54%29.83 "Hg10 mi
1:53 AM61 °FClear.15 mph60%29.84 "Hg10 mi
12:53 AM59 °FOvercast.8 mph75%29.87 "Hg10 mi
12:00 AM63 °FThundershowers. Passing clouds.6 mph52%30.28 "Hg10 mi
10:53 PM
Fri, Jul 3
60 °FClear.8 mph60%29.85 "Hg10 mi
9:53 PM63 °FClear.6 mph56%29.83 "Hg10 mi
8:53 PM65 °FSunny.7 mph56%29.83 "Hg10 mi
7:53 PM72 °FSunny.12 mph40%29.82 "Hg10 mi
6:53 PM75 °FSunny.9 mph34%29.81 "Hg10 mi
5:53 PM76 °FScattered clouds.9 mph32%29.84 "Hg10 mi
4:53 PM75 °FSunny.6 mph37%29.85 "Hg10 mi
3:53 PM81 °FScattered clouds.3 mph24%29.83 "Hg10 mi
2:53 PM82 °FSunny.5 mph21%29.83 "Hg10 mi
1:53 PM82 °FScattered clouds.6 mph24%29.83 "Hg10 mi
12:53 PM80 °FSunny.7 mph26%29.85 "Hg10 mi
11:53 AM79 °FScattered clouds.12 mph30%29.88 "Hg10 mi
Weather by CustomWeather, © 2015

See weather overviewHow to use our weather pages